Location: *
(43.0167°S, 179.9000°E)
Time: 11:34:10
(UTC+00:00)

Meteor 2-5 Rocket - Pass Details

Date: 12 August 2024
Orbit: 833 x 910 km, 81.2° (Epoch: 12 September)

Event Time Altitude Azimuth Distance (km) Brightness Sun altitude
Exits shadow 16:26:39 43° 196° (SSW) 1,276 4.5 -27.9°
Drops below altitude 10° 16:30:41 10° 176° (S) 2,611 6.3 -27.2°
Sets 16:33:12 0° 172° (S) 3,549 7.1 -26.7°
